Tracking 17921 objects as of 16-January-2017
HD Live streaming from Space Station
objects crossing your sky now

GALAXY 14

Track GALAXY 14 now!
GALAXY 14 is classified as:


NORAD ID: 28790
Int'l Code: 2005-030A
Perigee: 35,858.3 km
Apogee: 35,881.9 km
Inclination: 0.0 °
Period: 1,440.0 minutes
Semi major axis: 42241 km
RCS: 19.9526 m2 (large)
Launch date: August 13, 2005
Source: United States (US)
Launch site: TYURATAM MISSILE AND SPACE COMPLEX (TTMTR)

24 C-band transponders; North America, Caribbean.
Your satellite tracking list
Your tracking list is empty





NASA's NSSDC Master Catalog

Two Line Element Set (TLE):
1 28790U 05030A   17015.46628587  .00000022  00000-0  00000+0 0  9997
2 28790   0.0160  60.6300 0002792 245.5589 211.7533  1.00272339 41811
Source of the keplerian elements: AFSPC